View from above orbital plane
|
View from above satellite
|
Ground track
|
The orbit data is extracted from the following two-line orbital elements,
1 25876U 99041E 21058.33291365 .00000297 00000-0 91521-4 0 9999
2 25876 51.7659 24.1082 0531591 7.5254 353.3268 14.04521728104444
Epoch (UTC): | 27 February 2021 07:59:23 |
Eccentricity: | 0.0531591 |
inclination: | 51.7659° |
perigee height: | 492 km |
apogee height: | 1264 km |
right ascension of ascending node: | 24.1082° |
argument of perigee: | 7.5254° |
revolutions per day: | 14.04521728 |
mean anomaly at epoch: | 353.3268° |
orbit number at epoch: | 10444 |
The dashed part of the orbit path shows where the satellite is in the earth's shadow,
|
|